[[{"header":{"parameterUnit":"m.s-1","parameterCategory":1,"la1":30.2991,"la2":30.254,"lo1":-89.0895,"lo2":-89.0444,"dy":0.0017,"dx":0.0017,"nx":28,"ny":28,"refTime":"2024-08-27T09:00:00:Z","depth":0,"parameterNumber":2,"parameterNumberName":"U-component_of_WINDS"},"data":[0,0,0,0,0,0,0,0,0,0,0,0,0,0,0,0,0,0,0,0,0,0,0,0,0,0,0,0,0,0,0,0,0,0,0,0,0,0,0,0,0,0,0,0,0,0,0,0,0,0,0,0,0,0,0,0,0,0,-3.0438,-3.0439,0,-3.0462,-3.0462,-3.0462,-3.0412,-3.041,-3.0408,-3.0407,-3.043,-3.0432,-3.0434,0,0,0,0,0,0,0,0,0,0,0,0,0,-3.035,-3.0352,-3.0438,-3.0439,-3.0439,-3.0462,-3.0462,-3.0462,-3.0412,-3.041,-3.0408,-3.0406,-3.0429,-3.0432,-3.0434,0,0,0,0,0,0,0,0,0,0,0,0,0,-3.0382,-3.0352,-3.0438,-3.0416,-3.0415,-3.0462,-3.0462,-3.0463,-3.0412,-3.041,-3.0407,-3.0405,-3.0428,-3.0431,-3.0435,-3.0504,0,0,-3.0444,-3.0446,0,0,0,0,0,0,0,0,-3.038,-3.0385,-3.0419,-3.0418,-3.0416,-3.0431,-3.0439,-3.0476,-3.0413,-3.0413,-3.0407,-3.0404,-3.0432,-3.0435,-3.0445,-3.0505,-3.0506,-3.0445,-3.0447,-3.0448,-3.0449,0,0,0,0,0,0,0,-3.0378,-3.0384,-3.0447,-3.042,-3.0418,-3.0406,-3.0407,-3.0446,-3.0436,-3.0413,-3.0409,-3.0413,-3.0431,-3.0442,-3.0445,-3.0506,-3.0445,-3.0448,-3.0449,-3.0451,-3.0624,-3.0627,0,0,0,0,0,0,-3.0379,-3.0383,-3.0447,-3.0448,-3.0392,-3.0409,-3.0411,-3.0429,-3.0436,-3.0434,-3.0415,-3.0411,-3.0438,-3.0441,-3.0446,-3.0526,-3.0448,-3.0451,-3.0453,-3.0622,-3.0625,-3.0628,0,0,0,0,0,0,-3.0377,-3.0385,-3.0446,-3.0415,-3.0421,-3.0413,-3.0434,-3.0431,-3.0441,-3.0437,-3.0435,-3.0428,-3.0436,-3.0441,-3.049,-3.0526,-3.0452,-3.0455,-3.0618,-3.0623,-3.0626,-3.0688,0,0,0,0,0,0,-3.0375,-3.0385,-3.041,-3.0415,-3.0423,-3.0489,-3.0436,-3.0433,-3.0447,-3.0442,-3.0449,-3.0447,-3.0434,-3.0485,-3.0493,-3.0529,-3.0458,-3.0615,-3.062,-3.0625,-3.0683,-3.0694,-3.0704,0,0,0,0,0,-3.0372,-3.0427,-3.0412,-3.042,-3.0455,-3.0492,-3.0496,-3.048,-3.045,-3.0476,-3.0474,-3.0447,-3.0522,-3.0491,-3.0499,-3.0537,-3.0613,-3.0619,-3.0625,-3.0678,-3.0692,-3.0703,0,0,0,0,0,0,-3.0425,-3.0427,-3.041,-3.0469,-3.0481,-3.0483,-3.0515,-3.0495,-3.0515,-3.0508,-3.0488,-3.049,-3.0542,-3.0545,-3.051,-3.0604,-3.0562,-3.057,-3.06,-3.0613,-3.0623,-3.062,-3.0461,0,0,0,0,0,-3.0444,-3.0473,-3.0473,-3.0525,-3.0532,-3.0523,-3.0538,-3.0525,-3.0536,-3.054,-3.0541,-3.0553,-3.0579,-3.0597,-3.0621,-3.0684,-3.0685,-3.0715,-3.0725,-3.0734,-3.074,-3.0774,-3.0787,-3.0648,-3.0648,-3.0647,0,0,-3.0482,-3.0487,-3.0506,-3.0536,-3.0543,-3.0574,-3.0527,-3.0561,-3.0584,-3.0546,-3.0591,-3.0593,-3.0605,-3.0662,-3.0686,-3.0665,-3.0779,-3.0741,-3.0748,-3.075,-3.0781,-3.0794,-3.0806,-3.0652,-3.0651,-3.065,0,0,-3.0567,-3.0575,-3.0618,-3.0627,-3.064,-3.0634,-3.0645,-3.0651,-3.0651,-3.0697,-3.0669,-3.0696,-3.0741,-3.0751,-3.0762,-3.0854,-3.083,-3.0863,-3.0915,-3.0949,-3.0959,-3.0969,-3.1001,-3.1013,-3.087,-3.087,-3.087,0,-3.0613,-3.0658,-3.0643,-3.0679,-3.0693,-3.0661,-3.0705,-3.0715,-3.0735,-3.0745,-3.0721,-3.0778,-3.0784,-3.0842,-3.0865,-3.0876,-3.0887,-3.086,-3.0959,-3.0969,-3.0977,-3.1008,-3.102,-3.0874,-3.0873,-3.0873,-3.0872,0,-3.0714,-3.0746,-3.078,-3.08,-3.0818,-3.0858,-3.0849,-3.0869,-3.0856,-3.0852,-3.09,-3.0907,-3.0931,-3.0945,-3.0932,-3.1002,-3.0988,-3.0963,-3.0919,-3.0995,-3.1022,-3.1034,-3.0879,-3.0878,-3.0876,-3.0876,0,0,-3.083,-3.0843,-3.0855,-3.0865,-3.0878,-3.0902,-3.0942,-3.0967,-3.0984,-3.1,-3.1032,-3.1073,-3.105,-3.1062,-3.105,-3.108,-3.1152,-3.1051,-3.105,-3.1068,-3.1229,-3.1247,-3.126,-3.1138,-3.114,-3.1142,-3.1227,0,-3.0913,-3.098,-3.0969,-3.1034,-3.1064,-3.1036,-3.107,-3.1082,-3.1081,-3.1107,-3.1106,-3.1134,-3.1102,-3.1109,-3.1138,-3.1137,-3.1184,-3.1131,-3.1166,-3.1168,-3.1161,-3.1275,-3.1293,-3.1374,-3.1238,-3.124,-3.1242,0,-3.1018,-3.1038,-3.1107,-3.1117,-3.1129,-3.116,-3.1182,-3.1207,-3.1221,-3.1218,-3.1233,-3.1217,-3.1256,-3.1215,-3.127,-3.1234,-3.1249,-3.1251,-3.1254,-3.1254,-3.1207,-3.1277,-3.1399,-3.1411,-3.1259,-3.1258,-3.1256,0,-3.1094,-3.1139,-3.1186,-3.1195,-3.1207,-3.123,-3.1236,-3.1248,-3.1264,-3.1284,-3.1294,-3.1319,-3.1332,-3.1352,-3.1342,-3.1313,-3.1398,-3.1356,-3.1396,-3.1397,-3.1413,-3.1411,-3.1537,-3.1426,-3.1426,-3.1426,-3.1426,0,-3.1187,-3.1229,-3.122,-3.1249,-3.1296,-3.1283,-3.1331,-3.1334,-3.1345,-3.1373,-3.1352,-3.1379,-3.1366,-3.1393,-3.1387,-3.1432,-3.1439,-3.1438,-3.1435,-3.1438,-3.1438,-3.1445,-3.1438,-3.1429,-3.1428,-3.1428,-3.1427,0,-3.1278,-3.1273,-3.1323,-3.1331,-3.1335,-3.1369,-3.1377,-3.1404,-3.1403,-3.1439,-3.1447,-3.1445,-3.1476,-3.147,-3.1503,-3.1499,-3.1556,-3.1547,-3.1551,-3.1548,-3.1588,-3.1584,-3.1721,-3.1738,-3.1618,-3.1619,-3.162,0,-3.1336,-3.1368,-3.1381,-3.1399,-3.1407,-3.1437,-3.1454,-3.1443,-3.1461,-3.1481,-3.1506,-3.1535,-3.1557,-3.1608,-3.1609,-3.1635,-3.1626,-3.1672,-3.1629,-3.1632,-3.1624,-3.1622,-3.1625,-3.168,-3.1681,-3.1682,-3.1683,0,-3.1439,-3.1436,-3.1461,-3.1486,-3.1507,-3.1526,-3.1543,-3.1559,-3.155,-3.1573,-3.1604,-3.1622,-3.1657,-3.1686,-3.1711,-3.1717,-3.1699,-3.1697,-3.1708,-3.171,-3.171,-3.1709,-3.1572,-3.1693,-3.1692,-3.1692,-3.1691,-3.1691,-3.1514,-3.1542,-3.1556,-3.1585,-3.1597,-3.1614,-3.164,-3.1642,-3.1669,-3.1696,-3.1689,-3.1725,-3.174,-3.1771,-3.1781,-3.1809,-3.1791,-3.1807,-3.181,-3.1813,-3.1818,-3.1708,-3.1813,-3.1813,-3.1813,-3.1813,-3.1812,0,-3.1615,-3.1623,-3.165,-3.1675,-3.1698,-3.1681,-3.1699,-3.172,-3.1752,-3.1767,-3.179,-3.1827,-3.1856,-3.186,-3.1888,-3.1909,-3.1902,-3.1917,-3.1914,-3.1916,-3.1832,-3.182,-3.1923,-3.1923,-3.1923,-3.1922,-3.1922,-3.1922,-3.167,-3.1716,-3.1715,-3.1767,-3.1774,-3.1809,-3.1821,-3.1837,-3.1849,-3.1891,-3.1915,-3.1919,-3.193,-3.1959,-3.1984,-3.1985,-3.1995,-3.2014,-3.2011,-3.1932,-3.1921,-3.1911,-3.1899,-3.2017,-3.2017,-3.2092,-3.2092,-3.2093]},{"header":{"parameterUnit":"m.s-1","parameterCategory":1,"la1":30.2991,"la2":30.254,"lo1":-89.0895,"lo2":-89.0444,"dy":0.0017,"dx":0.0017,"nx":28,"ny":28,"refTime":"2024-08-27T09:00:00:Z","depth":0,"parameterNumber":3,"parameterNumberName":"V-component_of_WINDS"},"data":[0,0,0,0,0,0,0,0,0,0,0,0,0,0,0,0,0,0,0,0,0,0,0,0,0,0,0,0,0,0,0,0,0,0,0,0,0,0,0,0,0,0,0,0,0,0,0,0,0,0,0,0,0,0,0,0,0,0,0.6821,0.6821,0,0.6826,0.6826,0.6826,0.6826,0.6825,0.6825,0.6825,0.6827,0.6827,0.6827,0,0,0,0,0,0,0,0,0,0,0,0,0,0.6809,0.6809,0.6821,0.6821,0.6821,0.6826,0.6826,0.6826,0.6826,0.6825,0.6825,0.6825,0.6827,0.6827,0.6827,0,0,0,0,0,0,0,0,0,0,0,0,0,0.6814,0.6809,0.6821,0.6821,0.6822,0.6826,0.6826,0.6826,0.6826,0.6825,0.6825,0.6825,0.6827,0.6827,0.6827,0.683,0,0,0.6827,0.6828,0,0,0,0,0,0,0,0,0.6814,0.6814,0.6821,0.6821,0.6822,0.6825,0.6822,0.6827,0.6826,0.6824,0.6825,0.6825,0.6826,0.6826,0.6827,0.683,0.683,0.6828,0.6828,0.6828,0.6828,0,0,0,0,0,0,0,0.6813,0.6814,0.6823,0.6821,0.6821,0.6821,0.6821,0.6823,0.6825,0.6824,0.6824,0.6825,0.6826,0.6827,0.6827,0.683,0.6828,0.6828,0.6828,0.6828,0.6836,0.6836,0,0,0,0,0,0,0.6813,0.6814,0.6822,0.6823,0.6817,0.6821,0.6822,0.6824,0.6825,0.6826,0.6825,0.6825,0.6827,0.6827,0.6827,0.6831,0.6828,0.6828,0.6828,0.6836,0.6836,0.6836,0,0,0,0,0,0,0.6813,0.6814,0.6822,0.6818,0.6819,0.6821,0.6824,0.6824,0.6825,0.6826,0.6826,0.6826,0.6827,0.6827,0.683,0.6831,0.6828,0.6828,0.6836,0.6836,0.6836,0.6839,0,0,0,0,0,0,0.6813,0.6814,0.6815,0.6818,0.682,0.6825,0.6824,0.6824,0.6826,0.6826,0.6827,0.6827,0.6827,0.683,0.683,0.6831,0.6828,0.6836,0.6836,0.6836,0.6838,0.6839,0.6839,0,0,0,0,0,0.6812,0.6815,0.6815,0.6816,0.6821,0.6825,0.6826,0.6827,0.6826,0.6827,0.6828,0.6827,0.6831,0.683,0.683,0.6832,0.6836,0.6836,0.6836,0.6838,0.6839,0.6839,0,0,0,0,0,0,0.681,0.6815,0.6816,0.6819,0.6822,0.6825,0.6826,0.6827,0.6829,0.6828,0.6829,0.6829,0.6832,0.6832,0.683,0.6835,0.6833,0.6834,0.6835,0.6835,0.6836,0.6835,0.6828,0,0,0,0,0,0.681,0.6813,0.6817,0.682,0.6822,0.6824,0.6825,0.6826,0.6829,0.6829,0.683,0.6832,0.6833,0.6834,0.6836,0.6839,0.6839,0.684,0.6841,0.6841,0.6841,0.6843,0.6844,0.6837,0.6837,0.6837,0,0,0.6809,0.6813,0.6815,0.682,0.6822,0.6825,0.6825,0.6827,0.683,0.6829,0.6832,0.6833,0.6835,0.6838,0.6839,0.6838,0.6843,0.6842,0.6842,0.6842,0.6844,0.6844,0.6845,0.6838,0.6838,0.6838,0,0,0.6811,0.6814,0.6817,0.682,0.6824,0.6825,0.6826,0.683,0.6831,0.6834,0.6835,0.6837,0.684,0.6841,0.6842,0.6847,0.6846,0.6847,0.6849,0.6851,0.6852,0.6852,0.6854,0.6855,0.6848,0.6848,0.6848,0,0.6809,0.6815,0.6818,0.6821,0.6824,0.6826,0.6829,0.6831,0.6835,0.6836,0.6836,0.6841,0.6842,0.6846,0.6847,0.6848,0.6849,0.6846,0.6852,0.6852,0.6853,0.6854,0.6855,0.6848,0.6848,0.6848,0.6848,0,0.6813,0.6817,0.6819,0.6825,0.6827,0.683,0.6834,0.6836,0.6837,0.6839,0.6843,0.6845,0.6848,0.6849,0.6849,0.6853,0.6853,0.6852,0.685,0.6854,0.6855,0.6856,0.6848,0.6848,0.6848,0.6848,0,0,0.681,0.682,0.682,0.6824,0.6829,0.6832,0.6836,0.684,0.6842,0.6845,0.6848,0.6852,0.6852,0.6853,0.6854,0.6856,0.686,0.6855,0.6855,0.6856,0.6865,0.6865,0.6865,0.686,0.686,0.686,0.6865,0,0.6812,0.682,0.6824,0.6829,0.6833,0.6836,0.6839,0.6843,0.6846,0.6849,0.6851,0.6854,0.6854,0.6855,0.6857,0.6859,0.6862,0.6859,0.6862,0.6862,0.6861,0.6866,0.6866,0.687,0.6865,0.6865,0.6865,0,0.6814,0.6819,0.6826,0.6833,0.6834,0.6837,0.6842,0.6846,0.685,0.6852,0.6855,0.6856,0.686,0.6859,0.6864,0.6862,0.6864,0.6865,0.6865,0.6865,0.6863,0.6865,0.6871,0.6871,0.6866,0.6866,0.6866,0,0.6812,0.682,0.6826,0.6828,0.6836,0.6838,0.6841,0.6846,0.6849,0.6853,0.6855,0.6859,0.6861,0.6864,0.6867,0.6865,0.6872,0.6871,0.6873,0.6873,0.6873,0.6872,0.6878,0.6875,0.6875,0.6875,0.6875,0,0.6813,0.6816,0.6825,0.6828,0.6833,0.6837,0.6842,0.6845,0.6849,0.6853,0.6856,0.6859,0.6862,0.6866,0.6868,0.6872,0.6873,0.6874,0.6874,0.6873,0.6873,0.6874,0.6873,0.6875,0.6875,0.6875,0.6875,0,0.681,0.6816,0.6822,0.683,0.6832,0.6835,0.6842,0.6845,0.6849,0.6853,0.6854,0.6859,0.6864,0.6867,0.6873,0.6874,0.6879,0.6879,0.6877,0.6877,0.6879,0.6879,0.6885,0.6886,0.6883,0.6883,0.6883,0,0.681,0.6813,0.6822,0.6826,0.683,0.6835,0.6838,0.6844,0.6847,0.6854,0.6856,0.6861,0.6865,0.6872,0.6876,0.6881,0.6881,0.6883,0.6881,0.6881,0.6881,0.688,0.6881,0.6882,0.6882,0.6882,0.6882,0,0.6809,0.6812,0.6818,0.6825,0.683,0.6835,0.684,0.6843,0.6849,0.6853,0.6859,0.6862,0.6869,0.6874,0.6879,0.6882,0.6883,0.6883,0.6884,0.6882,0.6881,0.6882,0.6877,0.6883,0.6883,0.6883,0.6883,0.6883,0.6807,0.6811,0.6819,0.6825,0.683,0.6836,0.684,0.6845,0.685,0.6857,0.6859,0.6865,0.6871,0.6878,0.6881,0.6885,0.6885,0.6886,0.6886,0.6886,0.6886,0.6882,0.6886,0.6886,0.6886,0.6886,0.6886,0,0.6806,0.6812,0.6818,0.6827,0.6832,0.6835,0.6842,0.6846,0.6851,0.6857,0.6862,0.6869,0.6874,0.6879,0.6885,0.6887,0.6888,0.6889,0.6888,0.6889,0.6886,0.6885,0.6888,0.6888,0.6888,0.6888,0.6888,0.6888,0.6807,0.6813,0.6818,0.6827,0.6832,0.6839,0.6843,0.6848,0.6853,0.6861,0.6866,0.687,0.6876,0.6882,0.6887,0.6889,0.689,0.689,0.6892,0.6889,0.6889,0.6888,0.6887,0.6891,0.6891,0.6894,0.6894,0.6894]}]]